Time,TemperatureF,DewpointF,PressureIn,WindDirection,WindDirectionDegrees,WindSpeedMPH,WindSpeedGustMPH,Humidity,HourlyPrecipIn,Conditions,Clouds,dailyrainin,SolarRadiationWatts/m^2,SoftwareType,DateUTC
2013-02-12 00:00:00,33.3,24.2,29.90,West,268,7.5,21.0,69,0.00,,,0.00,0.00,VWS V14.01,2013-02-12 05:00:00,
2013-02-12 00:05:00,33.3,23.9,29.91,WSW,254,7.5,16.5,68,0.00,,,0.00,0.00,VWS V14.01,2013-02-12 05:05:00,
2013-02-12 00:10:00,33.3,23.9,29.90,WSW,249,9.0,21.0,68,0.00,,,0.00,0.00,VWS V14.01,2013-02-12 05:10:00,
2013-02-12 00:15:00,33.2,24.1,29.91,WNW,285,4.5,21.0,69,0.00,,,0.00,0.00,VWS V14.01,2013-02-12 05:15:00,
2013-02-12 00:20:00,33.2,24.1,29.91,West,276,3.0,10.5,69,0.00,,,0.00,0.00,VWS V14.01,2013-02-12 05:20:00,
2013-02-12 00:25:00,33.2,24.1,29.91,West,279,1.5,16.5,69,0.00,,,0.00,0.00,VWS V14.01,2013-02-12 05:25:00,
2013-02-12 00:30:00,33.2,24.1,29.91,SW,236,6.0,16.5,69,0.00,,,0.00,0.00,VWS V14.01,2013-02-12 05:30:00,
2013-02-12 00:35:00,33.2,24.1,29.92,WSW,245,3.0,18.0,69,0.00,,,0.00,0.00,VWS V14.01,2013-02-12 05:35:00,
2013-02-12 00:40:00,33.3,24.2,29.92,West,267,1.5,21.0,69,0.00,,,0.00,0.00,VWS V14.01,2013-02-12 05:40:00,
2013-02-12 00:45:00,33.3,24.2,29.92,WNW,283,4.5,21.0,69,0.00,,,0.00,0.00,VWS V14.01,2013-02-12 05:45:00,
2013-02-12 00:50:00,33.3,24.2,29.92,WSW,242,3.0,15.0,69,0.00,,,0.00,0.00,VWS V14.01,2013-02-12 05:50:00,
2013-02-12 00:55:00,33.2,24.1,29.92,WSW,256,0.0,15.0,69,0.00,,,0.00,0.00,VWS V14.01,2013-02-12 05:55:00,
2013-02-12 01:00:00,33.2,24.5,29.92,SSW,198,3.0,15.0,70,0.00,,,0.00,0.00,VWS V14.01,2013-02-12 06:00:00,
2013-02-12 01:05:00,33.2,24.1,29.92,West,277,4.5,15.0,69,0.00,,,0.00,0.00,VWS V14.01,2013-02-12 06:05:00,
2013-02-12 01:10:00,33.3,24.2,29.93,SW,236,7.5,15.0,69,0.00,,,0.00,0.00,VWS V14.01,2013-02-12 06:10:00,
2013-02-12 01:15:00,33.2,24.1,29.93,WSW,250,3.0,15.0,69,0.00,,,0.00,0.00,VWS V14.01,2013-02-12 06:15:00,
2013-02-12 01:20:00,33.2,24.1,29.93,SW,219,4.5,10.5,69,0.00,,,0.00,0.00,VWS V14.01,2013-02-12 06:20:00,
2013-02-12 01:25:00,33.1,24.4,29.93,WSW,255,3.0,16.5,70,0.00,,,0.00,0.00,VWS V14.01,2013-02-12 06:25:00,
2013-02-12 01:30:00,33.1,24.7,29.93,WSW,250,1.5,16.5,71,0.00,,,0.00,0.00,VWS V14.01,2013-02-12 06:30:00,
2013-02-12 01:35:00,33.1,24.7,29.93,WSW,240,3.0,7.5,71,0.00,,,0.00,0.00,VWS V14.01,2013-02-12 06:35:00,
2013-02-12 01:40:00,33.0,24.6,29.93,West,262,4.5,10.5,71,0.00,,,0.00,0.00,VWS V14.01,2013-02-12 06:40:00,
2013-02-12 01:45:00,32.9,24.5,29.94,WSW,257,6.0,13.5,71,0.00,,,0.00,0.00,VWS V14.01,2013-02-12 06:45:00,
2013-02-12 01:50:00,32.9,24.5,29.93,SW,219,10.5,15.0,71,0.00,,,0.00,0.00,VWS V14.01,2013-02-12 06:50:00,
2013-02-12 01:55:00,32.9,24.2,29.94,WSW,238,10.5,18.0,70,0.00,,,0.00,0.00,VWS V14.01,2013-02-12 06:55:00,
2013-02-12 01:59:00,32.8,24.5,29.94,WSW,243,4.5,18.0,71,0.00,,,0.00,0.00,VWS V14.01,2013-02-12 06:59:00,
2013-02-12 02:00:00,32.8,24.5,29.94,West,260,4.5,18.0,71,0.00,,,0.00,0.00,VWS V14.01,2013-02-12 07:00:00,
2013-02-12 02:04:00,32.8,24.5,29.94,West,265,1.5,13.5,71,0.00,,,0.00,0.00,VWS V14.01,2013-02-12 07:04:00,
2013-02-12 02:09:00,32.8,24.5,29.95,WSW,248,4.5,15.0,71,0.00,,,0.00,0.00,VWS V14.01,2013-02-12 07:09:00,
2013-02-12 02:14:00,32.8,24.5,29.95,WNW,290,0.0,21.0,71,0.00,,,0.00,0.00,VWS V14.01,2013-02-12 07:14:00,
2013-02-12 02:15:00,32.8,24.5,29.95,West,278,1.5,21.0,71,0.00,,,0.00,0.00,VWS V14.01,2013-02-12 07:15:00,
2013-02-12 02:19:00,32.7,24.4,29.95,West,260,3.0,15.0,71,0.00,,,0.00,0.00,VWS V14.01,2013-02-12 07:19:00,
2013-02-12 02:24:00,32.7,24.4,29.95,SW,221,3.0,15.0,71,0.00,,,0.00,0.00,VWS V14.01,2013-02-12 07:24:00,
2013-02-12 02:29:00,32.7,24.7,29.96,WSW,255,1.5,15.0,72,0.00,,,0.00,0.00,VWS V14.01,2013-02-12 07:29:00,
2013-02-12 02:30:00,32.7,24.7,29.96,WSW,258,4.5,15.0,72,0.00,,,0.00,0.00,VWS V14.01,2013-02-12 07:30:00,
2013-02-12 02:34:00,32.6,24.2,29.96,West,277,7.5,15.0,71,0.00,,,0.00,0.00,VWS V14.01,2013-02-12 07:34:00,
2013-02-12 02:39:00,32.6,24.2,29.96,SSE,148,6.0,15.0,71,0.00,,,0.00,0.00,VWS V14.01,2013-02-12 07:39:00,
2013-02-12 02:44:00,32.5,24.2,29.96,SW,223,7.5,15.0,71,0.00,,,0.00,0.00,VWS V14.01,2013-02-12 07:44:00,
2013-02-12 02:45:00,32.5,24.2,29.96,SW,233,13.5,15.0,71,0.00,,,0.00,0.00,VWS V14.01,2013-02-12 07:45:00,
2013-02-12 02:49:00,32.4,24.4,29.96,WSW,237,1.5,16.5,72,0.00,,,0.00,0.00,VWS V14.01,2013-02-12 07:49:00,
2013-02-12 02:54:00,32.4,24.4,29.96,WSW,247,3.0,16.5,72,0.00,,,0.00,0.00,VWS V14.01,2013-02-12 07:54:00,
2013-02-12 02:59:00,32.3,24.3,29.96,WSW,251,6.0,16.5,72,0.00,,,0.00,0.00,VWS V14.01,2013-02-12 07:59:00,
2013-02-12 03:00:00,32.3,24.3,29.96,West,271,3.0,16.5,72,0.00,,,0.00,0.00,VWS V14.01,2013-02-12 08:00:00,
2013-02-12 03:04:00,32.3,24.3,29.96,SW,231,3.0,13.5,72,0.00,,,0.00,0.00,VWS V14.01,2013-02-12 08:04:00,
2013-02-12 03:09:00,32.2,24.2,29.96,West,271,0.0,13.5,72,0.00,,,0.00,0.00,VWS V14.01,2013-02-12 08:09:00,
2013-02-12 03:14:00,32.2,24.2,29.96,WSW,243,7.5,16.5,72,0.00,,,0.00,0.00,VWS V14.01,2013-02-12 08:14:00,
2013-02-12 03:15:00,32.2,24.2,29.96,WSW,243,7.5,16.5,72,0.00,,,0.00,0.00,VWS V14.01,2013-02-12 08:15:00,
2013-02-12 03:19:00,32.2,24.2,29.96,SW,236,6.0,10.5,72,0.00,,,0.00,0.00,VWS V14.01,2013-02-12 08:19:00,
2013-02-12 03:24:00,32.2,23.9,29.96,WSW,252,6.0,19.5,71,0.00,,,0.00,0.00,VWS V14.01,2013-02-12 08:24:00,
2013-02-12 03:29:00,32.2,23.9,29.96,SW,226,1.5,19.5,71,0.00,,,0.00,0.00,VWS V14.01,2013-02-12 08:29:00,
2013-02-12 03:30:00,32.2,23.9,29.96,West,271,3.0,19.5,71,0.00,,,0.00,0.00,VWS V14.01,2013-02-12 08:30:00,
2013-02-12 03:34:00,32.2,23.9,29.96,WSW,244,1.5,13.5,71,0.00,,,0.00,0.00,VWS V14.01,2013-02-12 08:34:00,
2013-02-12 03:39:00,32.2,23.9,29.96,West,260,0.0,13.5,71,0.00,,,0.00,0.00,VWS V14.01,2013-02-12 08:39:00,
2013-02-12 03:44:00,32.1,23.8,29.97,West,260,0.0,13.5,71,0.00,,,0.00,0.00,VWS V14.01,2013-02-12 08:44:00,
2013-02-12 03:45:00,32.1,23.8,29.97,SW,221,1.5,13.5,71,0.00,,,0.00,0.00,VWS V14.01,2013-02-12 08:45:00,
2013-02-12 03:49:00,32.1,23.8,29.97,SW,236,3.0,7.5,71,0.00,,,0.00,0.00,VWS V14.01,2013-02-12 08:49:00,
2013-02-12 03:54:00,32.1,23.8,29.97,SW,220,3.0,10.5,71,0.00,,,0.00,0.00,VWS V14.01,2013-02-12 08:54:00,
2013-02-12 03:59:00,32.1,23.8,29.97,SW,224,12.0,12.0,71,0.00,,,0.00,0.00,VWS V14.01,2013-02-12 08:59:00,
2013-02-12 04:00:00,32.1,23.4,29.97,WSW,252,1.5,12.0,70,0.00,,,0.00,0.00,VWS V14.01,2013-02-12 09:00:00,
2013-02-12 04:04:00,32.1,23.4,29.97,West,261,1.5,18.0,70,0.00,,,0.00,0.00,VWS V14.01,2013-02-12 09:04:00,
2013-02-12 04:09:00,32.1,23.8,29.97,West,259,3.0,18.0,71,0.00,,,0.00,0.00,VWS V14.01,2013-02-12 09:09:00,
2013-02-12 04:14:00,32.0,23.7,29.97,WNW,285,0.0,18.0,71,0.00,,,0.00,0.00,VWS V14.01,2013-02-12 09:14:00,
2013-02-12 04:15:00,32.0,23.7,29.97,WNW,296,1.5,18.0,71,0.00,,,0.00,0.00,VWS V14.01,2013-02-12 09:15:00,
2013-02-12 04:19:00,32.0,23.3,29.98,WSW,237,6.0,18.0,70,0.00,,,0.00,0.00,VWS V14.01,2013-02-12 09:19:00,
2013-02-12 04:24:00,32.0,23.3,29.98,WSW,253,3.0,18.0,70,0.00,,,0.00,0.00,VWS V14.01,2013-02-12 09:24:00,
2013-02-12 04:29:00,31.9,23.2,29.98,West,276,4.5,18.0,70,0.00,,,0.00,0.00,VWS V14.01,2013-02-12 09:29:00,
2013-02-12 04:30:00,31.9,23.2,29.98,WSW,246,1.5,18.0,70,0.00,,,0.00,0.00,VWS V14.01,2013-02-12 09:30:00,
2013-02-12 04:34:00,31.9,23.2,29.98,WSW,254,7.5,9.0,70,0.00,,,0.00,0.00,VWS V14.01,2013-02-12 09:34:00,
2013-02-12 04:39:00,31.9,23.2,29.98,WSW,256,4.5,12.0,70,0.00,,,0.00,0.00,VWS V14.01,2013-02-12 09:39:00,
2013-02-12 04:44:00,31.9,23.6,29.98,West,268,10.5,15.0,71,0.00,,,0.00,0.00,VWS V14.01,2013-02-12 09:44:00,
2013-02-12 04:45:00,31.9,23.2,29.98,SSW,213,12.0,16.5,70,0.00,,,0.00,0.00,VWS V14.01,2013-02-12 09:45:00,
2013-02-12 04:49:00,31.9,23.2,29.99,WSW,258,1.5,13.5,70,0.00,,,0.00,0.00,VWS V14.01,2013-02-12 09:49:00,
2013-02-12 04:54:00,31.8,23.1,29.99,SW,227,6.0,13.5,70,0.00,,,0.00,0.00,VWS V14.01,2013-02-12 09:54:00,
2013-02-12 04:59:00,31.8,23.1,29.99,WSW,250,3.0,13.5,70,0.00,,,0.00,0.00,VWS V14.01,2013-02-12 09:59:00,
2013-02-12 05:00:00,31.9,23.6,29.99,WSW,242,0.0,13.5,71,0.00,,,0.00,0.00,VWS V14.01,2013-02-12 10:00:00,
2013-02-12 05:04:00,31.8,23.5,29.99,WSW,257,1.5,9.0,71,0.00,,,0.00,0.00,VWS V14.01,2013-02-12 10:04:00,
2013-02-12 05:09:00,31.8,23.5,29.99,SW,227,7.5,15.0,71,0.00,,,0.00,0.00,VWS V14.01,2013-02-12 10:09:00,
2013-02-12 05:14:00,31.8,23.5,29.99,West,271,4.5,15.0,71,0.00,,,0.00,0.00,VWS V14.01,2013-02-12 10:14:00,
2013-02-12 05:15:00,31.8,23.5,29.99,WSW,238,6.0,15.0,71,0.00,,,0.00,0.00,VWS V14.01,2013-02-12 10:15:00,
2013-02-12 05:19:00,31.7,23.7,29.99,West,264,3.0,10.5,72,0.00,,,0.00,0.00,VWS V14.01,2013-02-12 10:19:00,
2013-02-12 05:24:00,31.7,23.7,29.99,West,276,3.0,10.5,72,0.00,,,0.00,0.00,VWS V14.01,2013-02-12 10:24:00,
2013-02-12 05:29:00,31.7,23.7,29.99,WSW,250,1.5,12.0,72,0.00,,,0.00,0.00,VWS V14.01,2013-02-12 10:29:00,
2013-02-12 05:30:00,31.7,24.0,29.99,WSW,243,12.0,12.0,73,0.00,,,0.00,0.00,VWS V14.01,2013-02-12 10:30:00,
2013-02-12 05:34:00,31.7,24.0,29.99,SW,219,1.5,13.5,73,0.00,,,0.00,0.00,VWS V14.01,2013-02-12 10:34:00,
2013-02-12 05:39:00,31.6,24.0,29.99,WSW,257,4.5,13.5,73,0.00,,,0.00,0.00,VWS V14.01,2013-02-12 10:39:00,
2013-02-12 05:44:00,31.6,24.0,30.00,WSW,251,3.0,13.5,73,0.00,,,0.00,0.00,VWS V14.01,2013-02-12 10:44:00,
2013-02-12 05:45:00,31.6,24.0,30.00,West,264,4.5,13.5,73,0.00,,,0.00,0.00,VWS V14.01,2013-02-12 10:45:00,
2013-02-12 05:49:00,31.6,24.0,30.00,West,275,3.0,12.0,73,0.00,,,0.00,0.00,VWS V14.01,2013-02-12 10:49:00,
2013-02-12 05:54:00,31.6,24.0,30.00,West,277,4.5,12.0,73,0.00,,,0.00,0.00,VWS V14.01,2013-02-12 10:54:00,
2013-02-12 05:59:00,31.6,24.3,30.01,SW,226,4.5,13.5,74,0.00,,,0.00,0.00,VWS V14.01,2013-02-12 10:59:00,
2013-02-12 06:00:00,31.6,24.3,30.01,West,264,1.5,13.5,74,0.00,,,0.00,0.00,VWS V14.01,2013-02-12 11:00:00,
2013-02-12 06:04:00,31.6,24.3,30.01,WSW,251,6.0,13.5,74,0.00,,,0.00,0.00,VWS V14.01,2013-02-12 11:04:00,
2013-02-12 06:09:00,31.5,24.2,30.01,WSW,255,1.5,13.5,74,0.00,,,0.00,0.00,VWS V14.01,2013-02-12 11:09:00,
2013-02-12 06:14:00,31.5,24.2,30.01,WSW,252,3.0,13.5,74,0.00,,,0.00,0.00,VWS V14.01,2013-02-12 11:14:00,
2013-02-12 06:15:00,31.5,24.2,30.01,WSW,245,6.0,16.5,74,0.00,,,0.00,0.00,VWS V14.01,2013-02-12 11:15:00,
2013-02-12 06:19:00,31.4,24.1,30.01,SW,223,0.0,10.5,74,0.00,,,0.00,0.00,VWS V14.01,2013-02-12 11:19:00,
2013-02-12 06:24:00,31.4,24.4,30.01,WSW,240,9.0,12.0,75,0.00,,,0.00,0.00,VWS V14.01,2013-02-12 11:24:00,
2013-02-12 06:29:00,31.3,24.3,30.01,SW,218,10.5,13.5,75,0.00,,,0.00,0.00,VWS V14.01,2013-02-12 11:29:00,
2013-02-12 06:30:00,31.3,24.0,30.01,WNW,288,1.5,16.5,74,0.00,,,0.00,0.00,VWS V14.01,2013-02-12 11:30:00,
2013-02-12 06:34:00,31.3,24.0,30.01,WSW,255,3.0,13.5,74,0.00,,,0.00,0.00,VWS V14.01,2013-02-12 11:34:00,
2013-02-12 06:39:00,31.2,23.9,30.01,West,269,4.5,15.0,74,0.00,,,0.00,0.00,VWS V14.01,2013-02-12 11:39:00,
2013-02-12 06:44:00,31.2,23.9,30.02,West,262,10.5,15.0,74,0.00,,,0.00,0.00,VWS V14.01,2013-02-12 11:44:00,
2013-02-12 06:45:00,31.2,23.9,30.02,SW,226,3.0,15.0,74,0.00,,,0.00,0.00,VWS V14.01,2013-02-12 11:45:00,
2013-02-12 06:49:00,31.2,24.2,30.02,WSW,241,0.0,18.0,75,0.00,,,0.00,0.00,VWS V14.01,2013-02-12 11:49:00,
2013-02-12 06:54:00,31.2,24.2,30.02,SW,229,9.0,18.0,75,0.00,,,0.00,0.00,VWS V14.01,2013-02-12 11:54:00,
2013-02-12 06:59:00,31.2,23.9,30.03,WSW,254,4.5,18.0,74,0.00,,,0.00,0.00,VWS V14.01,2013-02-12 11:59:00,
2013-02-12 07:00:00,31.1,23.8,30.03,WSW,238,6.0,18.0,74,0.00,,,0.00,0.00,VWS V14.01,2013-02-12 12:00:00,
2013-02-12 07:04:00,31.1,23.8,30.03,SSW,203,4.5,12.0,74,0.00,,,0.00,0.00,VWS V14.01,2013-02-12 12:04:00,
2013-02-12 07:09:00,31.1,24.1,30.03,West,272,1.5,13.5,75,0.00,,,0.00,0.00,VWS V14.01,2013-02-12 12:09:00,
2013-02-12 07:14:00,31.0,24.0,30.03,SW,230,13.5,15.0,75,0.00,,,0.00,0.00,VWS V14.01,2013-02-12 12:14:00,
2013-02-12 07:15:00,31.0,24.0,30.03,SW,231,1.5,15.0,75,0.00,,,0.00,0.00,VWS V14.01,2013-02-12 12:15:00,
2013-02-12 07:19:00,31.0,24.0,30.03,WSW,255,3.0,12.0,75,0.00,,,0.00,0.00,VWS V14.01,2013-02-12 12:19:00,
2013-02-12 07:24:00,31.0,23.7,30.04,WSW,253,9.0,15.0,74,0.00,,,0.00,0.00,VWS V14.01,2013-02-12 12:24:00,
2013-02-12 07:29:00,31.0,24.0,30.04,SW,221,7.5,15.0,75,0.00,,,0.00,0.00,VWS V14.01,2013-02-12 12:29:00,
2013-02-12 07:30:00,31.0,24.0,30.04,West,276,4.5,15.0,75,0.00,,,0.00,0.00,VWS V14.01,2013-02-12 12:30:00,
2013-02-12 07:34:00,31.0,23.7,30.04,SW,233,6.0,15.0,74,0.00,,,0.00,0.00,VWS V14.01,2013-02-12 12:34:00,
2013-02-12 07:39:00,31.0,23.7,30.04,WSW,250,9.0,15.0,74,0.00,,,0.00,0.00,VWS V14.01,2013-02-12 12:39:00,
2013-02-12 07:44:00,31.0,23.7,30.04,West,271,9.0,15.0,74,0.00,,,0.00,0.00,VWS V14.01,2013-02-12 12:44:00,
2013-02-12 07:45:00,31.0,23.4,30.05,WSW,246,3.0,15.0,73,0.00,,,0.00,0.00,VWS V14.01,2013-02-12 12:45:00,
2013-02-12 07:49:00,31.0,23.7,30.05,WSW,240,0.0,7.5,74,0.00,,,0.00,0.00,VWS V14.01,2013-02-12 12:49:00,
2013-02-12 07:54:00,31.0,23.7,30.05,SW,221,3.0,13.5,74,0.00,,,0.00,0.00,VWS V14.01,2013-02-12 12:54:00,
2013-02-12 07:59:00,31.0,23.7,30.05,WSW,252,3.0,13.5,74,0.00,,,0.00,0.00,VWS V14.01,2013-02-12 12:59:00,
2013-02-12 08:00:00,31.0,23.7,30.05,SSW,211,1.5,13.5,74,0.00,,,0.00,0.00,VWS V14.01,2013-02-12 13:00:00,
2013-02-12 08:04:00,31.0,23.7,30.05,West,276,1.5,9.0,74,0.00,,,0.00,0.00,VWS V14.01,2013-02-12 13:04:00,
2013-02-12 08:09:00,31.1,23.8,30.06,WSW,250,6.0,13.5,74,0.00,,,0.00,0.00,VWS V14.01,2013-02-12 13:09:00,
2013-02-12 08:14:00,31.1,23.5,30.06,WSW,240,6.0,18.0,73,0.00,,,0.00,0.00,VWS V14.01,2013-02-12 13:14:00,
2013-02-12 08:15:00,31.1,23.8,30.06,West,272,3.0,18.0,74,0.00,,,0.00,0.00,VWS V14.01,2013-02-12 13:15:00,
2013-02-12 08:19:00,31.1,23.5,30.06,WSW,250,4.5,16.5,73,0.00,,,0.00,0.00,VWS V14.01,2013-02-12 13:19:00,
2013-02-12 08:24:00,31.2,23.9,30.06,SW,227,0.0,16.5,74,0.00,,,0.00,0.00,VWS V14.01,2013-02-12 13:24:00,
2013-02-12 08:29:00,31.2,23.9,30.06,WSW,241,4.5,16.5,74,0.00,,,0.00,0.00,VWS V14.01,2013-02-12 13:29:00,
2013-02-12 08:30:00,31.2,23.9,30.06,SW,232,4.5,16.5,74,0.00,,,0.00,0.00,VWS V14.01,2013-02-12 13:30:00,
2013-02-12 08:34:00,31.2,23.6,30.06,South,189,9.0,12.0,73,0.00,,,0.00,0.00,VWS V14.01,2013-02-12 13:34:00,
2013-02-12 08:39:00,31.2,23.6,30.06,WSW,238,4.5,12.0,73,0.00,,,0.00,0.00,VWS V14.01,2013-02-12 13:39:00,
2013-02-12 08:44:00,31.2,23.9,30.07,WSW,258,6.0,12.0,74,0.00,,,0.00,0.00,VWS V14.01,2013-02-12 13:44:00,
2013-02-12 08:45:00,31.2,23.6,30.07,West,266,6.0,15.0,73,0.00,,,0.00,0.00,VWS V14.01,2013-02-12 13:45:00,
2013-02-12 08:49:00,31.2,23.9,30.07,WSW,248,3.0,13.5,74,0.00,,,0.00,0.00,VWS V14.01,2013-02-12 13:49:00,
2013-02-12 08:54:00,31.2,23.9,30.06,SW,221,3.0,18.0,74,0.00,,,0.00,0.00,VWS V14.01,2013-02-12 13:54:00,
2013-02-12 08:59:00,31.2,24.2,30.07,SW,221,3.0,18.0,75,0.00,,,0.00,0.00,VWS V14.01,2013-02-12 13:59:00,
2013-02-12 09:00:00,31.2,24.2,30.07,WSW,250,7.5,18.0,75,0.00,,,0.00,0.00,VWS V14.01,2013-02-12 14:00:00,
2013-02-12 09:04:00,31.2,24.2,30.07,West,278,1.5,9.0,75,0.00,,,0.00,0.00,VWS V14.01,2013-02-12 14:04:00,
2013-02-12 09:09:00,31.2,24.2,30.07,WSW,239,0.0,9.0,75,0.00,,,0.00,0.00,VWS V14.01,2013-02-12 14:09:00,
2013-02-12 09:14:00,31.2,24.2,30.07,WNW,282,3.0,12.0,75,0.00,,,0.00,0.00,VWS V14.01,2013-02-12 14:14:00,
2013-02-12 09:15:00,31.2,24.2,30.07,WSW,239,7.5,12.0,75,0.00,,,0.00,0.00,VWS V14.01,2013-02-12 14:15:00,
2013-02-12 09:19:00,31.2,24.2,30.07,SW,220,3.0,10.5,75,0.00,,,0.00,0.00,VWS V14.01,2013-02-12 14:19:00,
2013-02-12 09:24:00,31.2,24.2,30.07,West,275,0.0,12.0,75,0.00,,,0.00,0.00,VWS V14.01,2013-02-12 14:24:00,
2013-02-12 09:29:00,31.2,24.2,30.07,West,275,6.0,12.0,75,0.00,,,0.00,0.00,VWS V14.01,2013-02-12 14:29:00,
2013-02-12 09:30:00,31.2,24.2,30.08,WSW,248,10.5,12.0,75,0.00,,,0.00,0.00,VWS V14.01,2013-02-12 14:30:00,
2013-02-12 09:34:00,31.2,24.2,30.07,SW,224,4.5,10.5,75,0.00,,,0.00,0.00,VWS V14.01,2013-02-12 14:34:00,
2013-02-12 09:38:00,31.3,24.3,30.07,WSW,237,0.0,15.0,75,0.00,,,0.00,0.00,VWS V14.01,2013-02-12 14:38:00,
2013-02-12 09:43:00,31.3,24.0,30.08,WSW,245,1.5,15.0,74,0.00,,,0.00,0.00,VWS V14.01,2013-02-12 14:43:00,
2013-02-12 09:45:00,31.3,24.0,30.07,WSW,248,4.5,15.0,74,0.00,,,0.00,0.00,VWS V14.01,2013-02-12 14:45:00,
2013-02-12 09:48:00,31.3,24.0,30.08,SW,221,6.0,12.0,74,0.00,,,0.00,0.00,VWS V14.01,2013-02-12 14:48:00,
2013-02-12 09:53:00,31.4,23.8,30.08,West,266,4.5,15.0,73,0.00,,,0.00,0.00,VWS V14.01,2013-02-12 14:53:00,
2013-02-12 09:58:00,31.4,23.8,30.08,West,261,4.5,15.0,73,0.00,,,0.00,0.00,VWS V14.01,2013-02-12 14:58:00,
2013-02-12 10:00:00,31.4,23.8,30.08,WSW,246,3.0,15.0,73,0.00,,,0.00,0.00,VWS V14.01,2013-02-12 15:00:00,
2013-02-12 10:03:00,31.4,23.4,30.07,SW,230,6.0,13.5,72,0.00,,,0.00,0.00,VWS V14.01,2013-02-12 15:03:00,
2013-02-12 10:08:00,31.4,23.4,30.08,SSW,198,9.0,13.5,72,0.00,,,0.00,0.00,VWS V14.01,2013-02-12 15:08:00,
2013-02-12 10:13:00,31.4,23.4,30.08,West,265,3.0,15.0,72,0.00,,,0.00,0.00,VWS V14.01,2013-02-12 15:13:00,
2013-02-12 10:15:00,31.4,23.4,30.08,WSW,257,0.0,15.0,72,0.00,,,0.00,0.00,VWS V14.01,2013-02-12 15:15:00,
2013-02-12 10:18:00,31.4,23.4,30.08,NW,305,3.0,13.5,72,0.00,,,0.00,0.00,VWS V14.01,2013-02-12 15:18:00,
2013-02-12 10:23:00,31.4,23.4,30.08,West,264,3.0,15.0,72,0.00,,,0.00,0.00,VWS V14.01,2013-02-12 15:23:00,
2013-02-12 10:28:00,31.4,23.4,30.08,WSW,257,0.0,15.0,72,0.00,,,0.00,0.00,VWS V14.01,2013-02-12 15:28:00,
2013-02-12 10:30:00,31.4,23.8,30.08,West,279,0.0,15.0,73,0.00,,,0.00,0.00,VWS V14.01,2013-02-12 15:30:00,
2013-02-12 10:33:00,31.5,23.9,30.08,WSW,247,7.5,9.0,73,0.00,,,0.00,0.00,VWS V14.01,2013-02-12 15:33:00,
2013-02-12 10:38:00,31.4,23.4,30.08,WSW,249,3.0,13.5,72,0.00,,,0.00,0.00,VWS V14.01,2013-02-12 15:38:00,
2013-02-12 10:43:00,31.4,23.4,30.08,SSW,210,0.0,13.5,72,0.00,,,0.00,0.00,VWS V14.01,2013-02-12 15:43:00,
2013-02-12 10:45:00,31.5,23.5,30.08,WSW,254,0.0,13.5,72,0.00,,,0.00,0.00,VWS V14.01,2013-02-12 15:45:00,
2013-02-12 10:48:00,31.5,23.9,30.08,West,268,3.0,4.5,73,0.00,,,0.00,0.00,VWS V14.01,2013-02-12 15:48:00,
2013-02-12 10:53:00,31.5,23.9,30.09,WSW,258,3.0,7.5,73,0.00,,,0.00,0.00,VWS V14.01,2013-02-12 15:53:00,
2013-02-12 10:58:00,31.5,24.2,30.09,West,272,0.0,7.5,74,0.00,,,0.00,0.00,VWS V14.01,2013-02-12 15:58:00,
2013-02-12 11:00:00,31.5,24.5,30.09,West,272,0.0,7.5,75,0.00,,,0.00,0.00,VWS V14.01,2013-02-12 16:00:00,
2013-02-12 11:03:00,31.5,24.2,30.09,West,267,1.5,7.5,74,0.00,,,0.00,0.00,VWS V14.01,2013-02-12 16:03:00,
2013-02-12 11:08:00,31.5,24.2,30.09,WSW,257,3.0,12.0,74,0.00,,,0.00,0.00,VWS V14.01,2013-02-12 16:08:00,
2013-02-12 11:13:00,31.5,24.2,30.08,WSW,258,4.5,12.0,74,0.00,,,0.00,0.00,VWS V14.01,2013-02-12 16:13:00,
2013-02-12 11:15:00,31.6,24.6,30.08,West,266,3.0,12.0,75,0.00,,,0.00,0.00,VWS V14.01,2013-02-12 16:15:00,
2013-02-12 11:18:00,31.6,24.6,30.08,WSW,242,1.5,7.5,75,0.00,,,0.00,0.00,VWS V14.01,2013-02-12 16:18:00,
2013-02-12 11:23:00,31.6,24.9,30.08,WNW,282,1.5,7.5,76,0.00,,,0.00,0.00,VWS V14.01,2013-02-12 16:23:00,
2013-02-12 11:28:00,31.6,24.9,30.08,West,260,3.0,9.0,76,0.00,,,0.00,0.00,VWS V14.01,2013-02-12 16:28:00,
2013-02-12 11:30:00,31.6,24.9,30.08,WSW,246,1.5,9.0,76,0.00,,,0.00,0.00,VWS V14.01,2013-02-12 16:30:00,
2013-02-12 11:33:00,31.6,24.6,30.07,WSW,239,1.5,7.5,75,0.00,,,0.00,0.00,VWS V14.01,2013-02-12 16:33:00,
2013-02-12 11:38:00,31.7,24.0,30.07,WSW,239,4.5,9.0,73,0.00,,,0.00,0.00,VWS V14.01,2013-02-12 16:38:00,
2013-02-12 11:43:00,31.8,23.8,30.07,West,271,3.0,9.0,72,0.00,,,0.00,0.00,VWS V14.01,2013-02-12 16:43:00,
2013-02-12 11:45:00,31.8,23.8,30.07,WSW,244,4.5,9.0,72,0.00,,,0.00,0.00,VWS V14.01,2013-02-12 16:45:00,
2013-02-12 11:48:00,31.8,23.5,30.07,SW,229,3.0,6.0,71,0.00,,,0.00,0.00,VWS V14.01,2013-02-12 16:48:00,
2013-02-12 11:53:00,31.8,23.1,30.07,SW,230,1.5,12.0,70,0.00,,,0.00,0.00,VWS V14.01,2013-02-12 16:53:00,
2013-02-12 11:58:00,31.8,23.1,30.06,SW,235,0.0,12.0,70,0.00,,,0.00,0.00,VWS V14.01,2013-02-12 16:58:00,
2013-02-12 12:00:00,31.9,23.2,30.06,West,266,0.0,12.0,70,0.00,,,0.00,0.00,VWS V14.01,2013-02-12 17:00:00,
2013-02-12 12:03:00,32.0,23.3,30.06,WSW,256,1.5,6.0,70,0.00,,,0.00,0.00,VWS V14.01,2013-02-12 17:03:00,
2013-02-12 12:08:00,32.2,23.5,30.06,SW,233,6.0,9.0,70,0.00,,,0.00,0.00,VWS V14.01,2013-02-12 17:08:00,
2013-02-12 12:13:00,32.1,23.8,30.06,WSW,249,1.5,9.0,71,0.00,,,0.00,0.00,VWS V14.01,2013-02-12 17:13:00,
2013-02-12 12:15:00,32.1,23.8,30.06,WSW,257,1.5,9.0,71,0.00,,,0.00,0.00,VWS V14.01,2013-02-12 17:15:00,
2013-02-12 12:18:00,32.1,23.8,30.05,West,278,1.5,6.0,71,0.00,,,0.00,0.00,VWS V14.01,2013-02-12 17:18:00,
2013-02-12 12:23:00,32.1,23.8,30.06,SW,229,3.0,6.0,71,0.00,,,0.00,0.00,VWS V14.01,2013-02-12 17:23:00,
2013-02-12 12:28:00,32.0,24.3,30.05,West,274,0.0,10.5,73,0.00,,,0.00,0.00,VWS V14.01,2013-02-12 17:28:00,
2013-02-12 12:30:00,32.0,24.3,30.05,SW,226,1.5,10.5,73,0.00,,,0.00,0.00,VWS V14.01,2013-02-12 17:30:00,
2013-02-12 12:33:00,32.1,24.4,30.06,WSW,250,1.5,6.0,73,0.00,,,0.00,0.00,VWS V14.01,2013-02-12 17:33:00,
2013-02-12 12:38:00,32.0,24.7,30.06,West,280,4.5,13.5,74,0.00,,,0.00,0.00,VWS V14.01,2013-02-12 17:38:00,
2013-02-12 12:43:00,31.8,24.8,30.06,WSW,245,0.0,13.5,75,0.00,,,0.00,0.00,VWS V14.01,2013-02-12 17:43:00,
2013-02-12 12:45:00,31.7,24.7,30.06,West,271,1.5,13.5,75,0.00,,,0.00,0.00,VWS V14.01,2013-02-12 17:45:00,
2013-02-12 12:48:00,31.7,25.0,30.06,SSW,209,3.0,10.5,76,0.00,,,0.00,0.00,VWS V14.01,2013-02-12 17:48:00,
2013-02-12 12:53:00,31.6,24.9,30.06,SW,214,0.0,10.5,76,0.00,,,0.00,0.00,VWS V14.01,2013-02-12 17:53:00,
2013-02-12 12:58:00,31.6,24.3,30.06,SSW,207,3.0,10.5,74,0.00,,,0.00,0.00,VWS V14.01,2013-02-12 17:58:00,
2013-02-12 13:00:00,31.6,24.3,30.06,West,260,3.0,10.5,74,0.00,,,0.00,0.00,VWS V14.01,2013-02-12 18:00:00,
2013-02-12 13:03:00,31.7,24.4,30.06,WSW,250,1.5,7.5,74,0.00,,,0.00,0.00,VWS V14.01,2013-02-12 18:03:00,
2013-02-12 13:08:00,31.8,23.8,30.06,West,273,1.5,9.0,72,0.00,,,0.00,0.00,VWS V14.01,2013-02-12 18:08:00,
2013-02-12 13:13:00,31.7,24.0,30.06,SW,219,6.0,13.5,73,0.00,,,0.00,0.00,VWS V14.01,2013-02-12 18:13:00,
2013-02-12 13:15:00,31.7,23.7,30.06,West,276,0.0,13.5,72,0.00,,,0.00,0.00,VWS V14.01,2013-02-12 18:15:00,
2013-02-12 13:18:00,31.6,24.0,30.06,West,278,0.0,3.0,73,0.00,,,0.00,0.00,VWS V14.01,2013-02-12 18:18:00,
2013-02-12 13:23:00,31.7,24.4,30.06,WSW,252,0.0,4.5,74,0.00,,,0.00,0.00,VWS V14.01,2013-02-12 18:23:00,
2013-02-12 13:28:00,31.6,24.3,30.05,West,263,1.5,10.5,74,0.00,,,0.00,0.00,VWS V14.01,2013-02-12 18:28:00,
2013-02-12 13:30:00,31.6,24.3,30.05,WNW,297,0.0,10.5,74,0.00,,,0.00,0.00,VWS V14.01,2013-02-12 18:30:00,
2013-02-12 13:33:00,31.5,24.2,30.04,WSW,258,0.0,3.0,74,0.00,,,0.00,0.00,VWS V14.01,2013-02-12 18:33:00,
2013-02-12 13:38:00,31.5,24.5,30.04,West,262,1.5,6.0,75,0.00,,,0.00,0.00,VWS V14.01,2013-02-12 18:38:00,
2013-02-12 13:43:00,31.5,24.5,30.03,WSW,248,3.0,7.5,75,0.00,,,0.00,0.00,VWS V14.01,2013-02-12 18:43:00,
2013-02-12 13:45:00,31.5,24.8,30.02,West,269,0.0,7.5,76,0.00,,,0.00,0.00,VWS V14.01,2013-02-12 18:45:00,
2013-02-12 13:48:00,31.5,24.8,30.01,SW,233,0.0,3.0,76,0.00,,,0.00,0.00,VWS V14.01,2013-02-12 18:48:00,
2013-02-12 13:53:00,31.6,24.6,30.01,WSW,257,1.5,3.0,75,0.00,,,0.00,0.00,VWS V14.01,2013-02-12 18:53:00,
2013-02-12 13:58:00,31.8,25.1,30.00,WNW,283,1.5,3.0,76,0.00,,,0.00,0.00,VWS V14.01,2013-02-12 18:58:00,
2013-02-12 14:00:00,31.8,25.1,30.00,West,272,1.5,3.0,76,0.00,,,0.00,0.00,VWS V14.01,2013-02-12 19:00:00,
2013-02-12 14:03:00,31.8,25.1,30.00,WSW,251,1.5,4.5,76,0.00,,,0.00,0.00,VWS V14.01,2013-02-12 19:03:00,
2013-02-12 14:08:00,31.7,25.0,30.00,WSW,243,0.0,4.5,76,0.00,,,0.00,0.00,VWS V14.01,2013-02-12 19:08:00,
2013-02-12 14:13:00,31.6,24.9,29.99,WSW,253,1.5,6.0,76,0.00,,,0.00,0.00,VWS V14.01,2013-02-12 19:13:00,
2013-02-12 14:15:00,31.7,25.0,29.99,NNW,332,0.0,6.0,76,0.00,,,0.00,0.00,VWS V14.01,2013-02-12 19:15:00,
2013-02-12 14:18:00,31.8,25.1,29.99,WNW,289,0.0,3.0,76,0.00,,,0.00,0.00,VWS V14.01,2013-02-12 19:18:00,
2013-02-12 14:23:00,31.9,25.2,29.99,NNW,330,0.0,3.0,76,0.00,,,0.00,0.00,VWS V14.01,2013-02-12 19:23:00,
2013-02-12 14:28:00,32.0,25.0,29.98,WSW,247,0.0,3.0,75,0.00,,,0.00,0.00,VWS V14.01,2013-02-12 19:28:00,
2013-02-12 14:30:00,32.0,25.3,29.98,SW,228,1.5,3.0,76,0.00,,,0.00,0.00,VWS V14.01,2013-02-12 19:30:00,
2013-02-12 14:33:00,32.1,25.1,29.98,WSW,255,3.0,4.5,75,0.00,,,0.00,0.00,VWS V14.01,2013-02-12 19:33:00,
2013-02-12 14:38:00,32.1,25.1,29.98,SSW,206,0.0,4.5,75,0.00,,,0.00,0.00,VWS V14.01,2013-02-12 19:38:00,
2013-02-12 14:43:00,32.3,25.3,29.98,West,279,0.0,4.5,75,0.00,,,0.00,0.00,VWS V14.01,2013-02-12 19:43:00,
2013-02-12 14:45:00,32.3,25.3,29.98,West,276,0.0,4.5,75,0.00,,,0.00,0.00,VWS V14.01,2013-02-12 19:45:00,
2013-02-12 14:48:00,32.5,24.8,29.98,SW,231,0.0,4.5,73,0.00,,,0.00,0.00,VWS V14.01,2013-02-12 19:48:00,
2013-02-12 14:53:00,32.7,25.3,29.99,WSW,245,0.0,4.5,74,0.00,,,0.00,0.00,VWS V14.01,2013-02-12 19:53:00,
2013-02-12 14:58:00,33.0,25.0,29.98,WNW,292,0.0,4.5,72,0.00,,,0.00,0.00,VWS V14.01,2013-02-12 19:58:00,
2013-02-12 15:03:00,32.9,24.9,29.99,West,265,0.0,6.0,72,0.00,,,0.00,0.00,VWS V14.01,2013-02-12 20:03:00,
2013-02-12 15:08:00,32.8,24.8,29.99,WSW,258,3.0,6.0,72,0.00,,,0.00,0.00,VWS V14.01,2013-02-12 20:08:00,
2013-02-12 15:13:00,32.8,24.8,30.00,West,269,1.5,6.0,72,0.00,,,0.00,0.00,VWS V14.01,2013-02-12 20:13:00,
2013-02-12 15:15:00,32.8,24.8,29.99,West,268,1.5,6.0,72,0.00,,,0.00,0.00,VWS V14.01,2013-02-12 20:15:00,
2013-02-12 15:18:00,32.7,25.0,30.00,SW,231,3.0,3.0,73,0.00,,,0.00,0.00,VWS V14.01,2013-02-12 20:18:00,
2013-02-12 15:23:00,32.7,25.0,30.00,West,274,1.5,6.0,73,0.00,,,0.00,0.00,VWS V14.01,2013-02-12 20:23:00,
2013-02-12 15:28:00,32.4,25.0,30.00,WSW,251,0.0,6.0,74,0.00,,,0.00,0.00,VWS V14.01,2013-02-12 20:28:00,
2013-02-12 15:30:00,32.4,25.0,30.00,SW,236,1.5,6.0,74,0.00,,,0.00,0.00,VWS V14.01,2013-02-12 20:30:00,
2013-02-12 15:33:00,32.5,25.1,30.01,SW,222,0.0,7.5,74,0.00,,,0.00,0.00,VWS V14.01,2013-02-12 20:33:00,
2013-02-12 15:38:00,32.6,25.2,30.01,WSW,257,1.5,7.5,74,0.00,,,0.00,0.00,VWS V14.01,2013-02-12 20:38:00,
2013-02-12 15:43:00,32.5,25.5,30.01,WSW,257,0.0,7.5,75,0.00,,,0.00,0.00,VWS V14.01,2013-02-12 20:43:00,
2013-02-12 15:45:00,32.5,25.5,30.01,West,259,1.5,7.5,75,0.00,,,0.00,0.00,VWS V14.01,2013-02-12 20:45:00,
2013-02-12 15:48:00,32.4,25.0,30.01,West,277,0.0,6.0,74,0.00,,,0.00,0.00,VWS V14.01,2013-02-12 20:48:00,
2013-02-12 15:53:00,32.5,25.1,30.01,WNW,284,1.5,6.0,74,0.00,,,0.00,0.00,VWS V14.01,2013-02-12 20:53:00,
2013-02-12 15:58:00,32.3,25.3,30.01,WSW,255,0.0,6.0,75,0.00,,,0.00,0.00,VWS V14.01,2013-02-12 20:58:00,
2013-02-12 16:00:00,32.3,25.6,30.02,SW,236,1.5,6.0,76,0.00,,,0.00,0.00,VWS V14.01,2013-02-12 21:00:00,
2013-02-12 16:03:00,32.5,25.5,30.02,WSW,256,1.5,4.5,75,0.00,,,0.00,0.00,VWS V14.01,2013-02-12 21:03:00,
2013-02-12 16:08:00,32.3,25.0,30.02,WSW,250,0.0,9.0,74,0.00,,,0.00,0.00,VWS V14.01,2013-02-12 21:08:00,
2013-02-12 16:13:00,32.2,25.2,30.02,SW,221,4.5,9.0,75,0.00,,,0.00,0.00,VWS V14.01,2013-02-12 21:13:00,
2013-02-12 16:15:00,32.1,25.1,30.02,West,274,3.0,9.0,75,0.00,,,0.00,0.00,VWS V14.01,2013-02-12 21:15:00,
2013-02-12 16:18:00,32.1,25.1,30.02,WSW,251,1.5,6.0,75,0.00,,,0.00,0.00,VWS V14.01,2013-02-12 21:18:00,
2013-02-12 16:23:00,32.1,25.4,30.02,WSW,247,1.5,6.0,76,0.00,,,0.00,0.00,VWS V14.01,2013-02-12 21:23:00,
2013-02-12 16:28:00,32.1,25.7,30.02,WSW,243,0.0,6.0,77,0.00,,,0.00,0.00,VWS V14.01,2013-02-12 21:28:00,
2013-02-12 16:33:00,32.3,25.6,30.02,West,268,1.5,3.0,76,0.00,,,0.00,0.00,VWS V14.01,2013-02-12 21:33:00,
2013-02-12 16:38:00,32.8,25.4,30.02,WSW,255,0.0,4.5,74,0.00,,,0.00,0.00,VWS V14.01,2013-02-12 21:38:00,
2013-02-12 16:43:00,32.7,24.7,30.01,West,266,0.0,6.0,72,0.00,,,0.00,0.00,VWS V14.01,2013-02-12 21:43:00,
2013-02-12 16:45:00,32.5,24.8,30.02,West,268,0.0,6.0,73,0.00,,,0.00,0.00,VWS V14.01,2013-02-12 21:45:00,
2013-02-12 16:48:00,32.4,24.7,30.01,NW,304,1.5,3.0,73,0.00,,,0.00,0.00,VWS V14.01,2013-02-12 21:48:00,
2013-02-12 16:53:00,32.2,24.5,30.01,SW,235,0.0,3.0,73,0.00,,,0.00,0.00,VWS V14.01,2013-02-12 21:53:00,
2013-02-12 16:58:00,32.0,24.7,30.02,WNW,285,0.0,3.0,74,0.00,,,0.00,0.00,VWS V14.01,2013-02-12 21:58:00,
2013-02-12 17:00:00,32.0,24.7,30.02,WNW,284,0.0,3.0,74,0.00,,,0.00,0.00,VWS V14.01,2013-02-12 22:00:00,
2013-02-12 17:03:00,31.9,24.9,30.01,WSW,256,1.5,4.5,75,0.00,,,0.00,0.00,VWS V14.01,2013-02-12 22:03:00,
2013-02-12 17:08:00,32.0,25.0,30.02,SW,215,0.0,4.5,75,0.00,,,0.00,0.00,VWS V14.01,2013-02-12 22:08:00,
2013-02-12 17:13:00,32.2,25.2,30.02,WSW,245,1.5,4.5,75,0.00,,,0.00,0.00,VWS V14.01,2013-02-12 22:13:00,
2013-02-12 17:15:00,32.2,24.9,30.02,WSW,258,0.0,4.5,74,0.00,,,0.00,0.00,VWS V14.01,2013-02-12 22:15:00,
2013-02-12 17:18:00,32.1,25.1,30.02,WSW,258,0.0,0.0,75,0.00,,,0.00,0.00,VWS V14.01,2013-02-12 22:18:00,
2013-02-12 17:23:00,32.0,25.0,30.02,WSW,245,0.0,1.5,75,0.00,,,0.00,0.00,VWS V14.01,2013-02-12 22:23:00,
2013-02-12 17:28:00,32.0,25.0,30.01,SSW,210,0.0,1.5,75,0.00,,,0.00,0.00,VWS V14.01,2013-02-12 22:28:00,
2013-02-12 17:30:00,32.0,25.0,30.01,SSW,210,0.0,1.5,75,0.00,,,0.00,0.00,VWS V14.01,2013-02-12 22:30:00,
2013-02-12 17:33:00,31.9,24.9,30.01,SSW,212,0.0,1.5,75,0.00,,,0.00,0.00,VWS V14.01,2013-02-12 22:33:00,
2013-02-12 17:38:00,31.7,24.7,30.01,SW,229,0.0,1.5,75,0.00,,,0.00,0.00,VWS V14.01,2013-02-12 22:38:00,
2013-02-12 17:43:00,31.4,24.4,30.01,SW,229,0.0,1.5,75,0.00,,,0.00,0.00,VWS V14.01,2013-02-12 22:43:00,
2013-02-12 17:45:00,31.2,24.5,30.01,SW,229,0.0,1.5,76,0.00,,,0.00,0.00,VWS V14.01,2013-02-12 22:45:00,
2013-02-12 17:48:00,31.1,24.4,30.01,SW,229,0.0,0.0,76,0.00,,,0.00,0.00,VWS V14.01,2013-02-12 22:48:00,
2013-02-12 17:53:00,30.8,24.5,30.02,SW,229,0.0,1.5,77,0.00,,,0.00,0.00,VWS V14.01,2013-02-12 22:53:00,
2013-02-12 17:58:00,30.5,24.5,30.02,SW,229,0.0,1.5,78,0.00,,,0.00,0.00,VWS V14.01,2013-02-12 22:58:00,
2013-02-12 18:00:00,30.4,24.4,30.02,SW,229,0.0,1.5,78,0.00,,,0.00,0.00,VWS V14.01,2013-02-12 23:00:00,
2013-02-12 18:03:00,30.3,24.3,30.02,SW,228,0.0,0.0,78,0.00,,,0.00,0.00,VWS V14.01,2013-02-12 23:03:00,
2013-02-12 18:08:00,30.0,24.3,30.02,SW,229,0.0,0.0,79,0.00,,,0.00,0.00,VWS V14.01,2013-02-12 23:08:00,
2013-02-12 18:13:00,29.8,24.4,30.02,SW,228,0.0,0.0,80,0.00,,,0.00,0.00,VWS V14.01,2013-02-12 23:13:00,
2013-02-12 18:15:00,29.8,24.4,30.02,SW,229,0.0,0.0,80,0.00,,,0.00,0.00,VWS V14.01,2013-02-12 23:15:00,
2013-02-12 18:18:00,29.8,24.4,30.02,SW,228,0.0,0.0,80,0.00,,,0.00,0.00,VWS V14.01,2013-02-12 23:18:00,
2013-02-12 18:23:00,29.6,24.5,30.02,SW,229,0.0,0.0,81,0.00,,,0.00,0.00,VWS V14.01,2013-02-12 23:23:00,
2013-02-12 18:28:00,29.5,24.4,30.02,SW,228,0.0,0.0,81,0.00,,,0.00,0.00,VWS V14.01,2013-02-12 23:28:00,
2013-02-12 18:30:00,29.4,24.3,30.02,SW,228,0.0,0.0,81,0.00,,,0.00,0.00,VWS V14.01,2013-02-12 23:30:00,
2013-02-12 18:33:00,29.3,24.2,30.02,SW,229,0.0,0.0,81,0.00,,,0.00,0.00,VWS V14.01,2013-02-12 23:33:00,
2013-02-12 18:38:00,29.2,24.4,30.02,SW,229,0.0,0.0,82,0.00,,,0.00,0.00,VWS V14.01,2013-02-12 23:38:00,
2013-02-12 18:43:00,29.0,24.2,30.02,SW,229,0.0,0.0,82,0.00,,,0.00,0.00,VWS V14.01,2013-02-12 23:43:00,
2013-02-12 18:45:00,28.8,24.0,30.02,SW,229,0.0,0.0,82,0.00,,,0.00,0.00,VWS V14.01,2013-02-12 23:45:00,
2013-02-12 18:48:00,28.6,24.4,30.02,SW,228,0.0,0.0,84,0.00,,,0.00,0.00,VWS V14.01,2013-02-12 23:48:00,
2013-02-12 18:53:00,28.6,24.4,30.02,SW,229,0.0,0.0,84,0.00,,,0.00,0.00,VWS V14.01,2013-02-12 23:53:00,
2013-02-12 18:58:00,28.5,24.3,30.01,SW,228,0.0,0.0,84,0.00,,,0.00,0.00,VWS V14.01,2013-02-12 23:58:00,
2013-02-12 19:00:00,28.5,24.3,30.02,SW,228,0.0,0.0,84,0.00,,,0.00,0.00,VWS V14.01,2013-02-13 00:00:00,
2013-02-12 19:03:00,28.4,24.2,30.01,SW,228,0.0,0.0,84,0.00,,,0.00,0.00,VWS V14.01,2013-02-13 00:03:00,
2013-02-12 19:08:00,28.2,24.3,30.01,SW,228,0.0,0.0,85,0.00,,,0.00,0.00,VWS V14.01,2013-02-13 00:08:00,
2013-02-12 19:13:00,28.0,24.1,30.01,SW,228,0.0,0.0,85,0.00,,,0.00,0.00,VWS V14.01,2013-02-13 00:13:00,
2013-02-12 19:15:00,27.9,24.0,30.00,SW,228,0.0,0.0,85,0.00,,,0.00,0.00,VWS V14.01,2013-02-13 00:15:00,
2013-02-12 19:18:00,27.9,24.0,30.00,SW,228,0.0,0.0,85,0.00,,,0.00,0.00,VWS V14.01,2013-02-13 00:18:00,
2013-02-12 19:22:00,27.9,24.3,30.00,SW,228,0.0,0.0,86,0.00,,,0.00,0.00,VWS V14.01,2013-02-13 00:22:00,
2013-02-12 19:27:00,27.8,24.2,30.00,SW,228,0.0,0.0,86,0.00,,,0.00,0.00,VWS V14.01,2013-02-13 00:27:00,
2013-02-12 19:30:00,27.7,24.1,29.99,SW,228,0.0,0.0,86,0.00,,,0.00,0.00,VWS V14.01,2013-02-13 00:30:00,
2013-02-12 19:32:00,27.7,24.1,29.99,SW,228,0.0,0.0,86,0.00,,,0.00,0.00,VWS V14.01,2013-02-13 00:32:00,
2013-02-12 19:37:00,27.5,24.1,29.99,SW,228,0.0,0.0,87,0.00,,,0.00,0.00,VWS V14.01,2013-02-13 00:37:00,
2013-02-12 19:42:00,27.3,24.0,29.99,SW,228,0.0,0.0,87,0.00,,,0.00,0.00,VWS V14.01,2013-02-13 00:42:00,
2013-02-12 19:45:00,27.2,24.1,29.99,SW,228,0.0,0.0,88,0.00,,,0.00,0.00,VWS V14.01,2013-02-13 00:45:00,
2013-02-12 19:47:00,27.2,24.1,29.99,SW,228,0.0,0.0,88,0.00,,,0.00,0.00,VWS V14.01,2013-02-13 00:47:00,
2013-02-12 19:52:00,27.1,24.0,29.99,SW,228,0.0,0.0,88,0.00,,,0.00,0.00,VWS V14.01,2013-02-13 00:52:00,
2013-02-12 20:00:00,26.9,23.8,29.99,North,0,0.0,0.0,88,0.00,,,0.00,0.00,VWS V14.01,2013-02-13 01:00:00,
2013-02-12 20:19:00,26.9,23.8,29.99,North,0,0.0,0.0,88,0.00,,,0.00,0.00,VWS V14.01,2013-02-13 01:19:00,
2013-02-12 20:24:00,27.0,24.2,29.98,SW,228,0.0,0.0,89,0.00,,,0.00,0.00,VWS V14.01,2013-02-13 01:24:00,
2013-02-12 20:29:00,27.0,24.2,29.99,SE,140,0.0,1.5,89,0.00,,,0.00,0.00,VWS V14.01,2013-02-13 01:29:00,
2013-02-12 20:30:00,27.0,24.2,29.99,SE,140,0.0,1.5,89,0.00,,,0.00,0.00,VWS V14.01,2013-02-13 01:30:00,
2013-02-12 20:34:00,27.0,24.2,29.98,SE,140,0.0,0.0,89,0.00,,,0.00,0.00,VWS V14.01,2013-02-13 01:34:00,
2013-02-12 20:39:00,27.0,23.9,29.98,SE,140,0.0,0.0,88,0.00,,,0.00,0.00,VWS V14.01,2013-02-13 01:39:00,
2013-02-12 20:44:00,27.0,23.9,29.98,SE,140,0.0,0.0,88,0.00,,,0.00,0.00,VWS V14.01,2013-02-13 01:44:00,
2013-02-12 20:45:00,27.0,23.9,29.98,SE,140,0.0,0.0,88,0.00,,,0.00,0.00,VWS V14.01,2013-02-13 01:45:00,
2013-02-12 20:49:00,27.0,23.9,29.98,SE,140,0.0,0.0,88,0.00,,,0.00,0.00,VWS V14.01,2013-02-13 01:49:00,
2013-02-12 20:54:00,26.9,23.8,29.98,SE,140,0.0,0.0,88,0.00,,,0.00,0.00,VWS V14.01,2013-02-13 01:54:00,
2013-02-12 20:59:00,26.7,23.9,29.98,SE,140,0.0,0.0,89,0.00,,,0.00,0.00,VWS V14.01,2013-02-13 01:59:00,
2013-02-12 21:00:00,26.7,23.9,29.98,SE,140,0.0,0.0,89,0.00,,,0.00,0.00,VWS V14.01,2013-02-13 02:00:00,
2013-02-12 21:04:00,26.6,23.8,29.97,SE,140,0.0,0.0,89,0.00,,,0.00,0.00,VWS V14.01,2013-02-13 02:04:00,
2013-02-12 21:09:00,26.6,23.8,29.97,SE,140,0.0,0.0,89,0.00,,,0.00,0.00,VWS V14.01,2013-02-13 02:09:00,
2013-02-12 21:14:00,26.5,23.7,29.97,SE,140,0.0,1.5,89,0.00,,,0.00,0.00,VWS V14.01,2013-02-13 02:14:00,
2013-02-12 21:15:00,26.5,23.7,29.97,SE,140,0.0,1.5,89,0.00,,,0.00,0.00,VWS V14.01,2013-02-13 02:15:00,
2013-02-12 21:19:00,26.4,23.9,29.97,SE,140,0.0,1.5,90,0.00,,,0.00,0.00,VWS V14.01,2013-02-13 02:19:00,
2013-02-12 21:24:00,26.3,23.8,29.97,SE,140,0.0,1.5,90,0.00,,,0.00,0.00,VWS V14.01,2013-02-13 02:24:00,
2013-02-12 21:29:00,26.2,23.7,29.96,SE,140,0.0,1.5,90,0.00,,,0.00,0.00,VWS V14.01,2013-02-13 02:29:00,
2013-02-12 21:30:00,26.2,23.7,29.96,SE,140,0.0,1.5,90,0.00,,,0.00,0.00,VWS V14.01,2013-02-13 02:30:00,
2013-02-12 21:34:00,26.1,23.6,29.96,SE,140,0.0,0.0,90,0.00,,,0.00,0.00,VWS V14.01,2013-02-13 02:34:00,
2013-02-12 21:39:00,26.0,23.7,29.96,SE,140,0.0,1.5,91,0.00,,,0.00,0.00,VWS V14.01,2013-02-13 02:39:00,
2013-02-12 21:44:00,26.0,23.5,29.96,SE,140,0.0,1.5,90,0.00,,,0.00,0.00,VWS V14.01,2013-02-13 02:44:00,
2013-02-12 21:45:00,26.0,23.5,29.96,SE,140,0.0,1.5,90,0.00,,,0.00,0.00,VWS V14.01,2013-02-13 02:45:00,
2013-02-12 21:49:00,25.9,23.4,29.96,SE,140,0.0,0.0,90,0.00,,,0.00,0.00,VWS V14.01,2013-02-13 02:49:00,
2013-02-12 21:54:00,25.8,23.5,29.97,SE,140,0.0,0.0,91,0.00,,,0.00,0.00,VWS V14.01,2013-02-13 02:54:00,
2013-02-12 21:59:00,25.8,23.5,29.96,SE,140,0.0,0.0,91,0.00,,,0.00,0.00,VWS V14.01,2013-02-13 02:59:00,
2013-02-12 22:00:00,25.8,23.5,29.96,SE,140,0.0,0.0,91,0.00,,,0.00,0.00,VWS V14.01,2013-02-13 03:00:00,
2013-02-12 22:04:00,25.8,23.5,29.96,SE,140,0.0,1.5,91,0.00,,,0.00,0.00,VWS V14.01,2013-02-13 03:04:00,
2013-02-12 22:09:00,25.9,23.4,29.96,SE,140,0.0,1.5,90,0.00,,,0.00,0.00,VWS V14.01,2013-02-13 03:09:00,
2013-02-12 22:14:00,25.9,23.4,29.96,SE,140,0.0,1.5,90,0.00,,,0.00,0.00,VWS V14.01,2013-02-13 03:14:00,
2013-02-12 22:15:00,26.0,23.5,29.96,SE,140,0.0,1.5,90,0.00,,,0.00,0.00,VWS V14.01,2013-02-13 03:15:00,
2013-02-12 22:19:00,26.1,23.6,29.96,SE,140,0.0,0.0,90,0.00,,,0.00,0.00,VWS V14.01,2013-02-13 03:19:00,
2013-02-12 22:24:00,26.2,23.7,29.96,SE,140,0.0,0.0,90,0.00,,,0.00,0.00,VWS V14.01,2013-02-13 03:24:00,
2013-02-12 22:29:00,26.0,23.5,29.95,SE,127,0.0,0.0,90,0.00,,,0.00,0.00,VWS V14.01,2013-02-13 03:29:00,
2013-02-12 22:30:00,26.0,23.5,29.95,SE,127,1.5,1.5,90,0.00,,,0.00,0.00,VWS V14.01,2013-02-13 03:30:00,
2013-02-12 22:34:00,26.0,23.5,29.95,SE,137,1.5,1.5,90,0.00,,,0.00,0.00,VWS V14.01,2013-02-13 03:34:00,
2013-02-12 22:39:00,26.1,23.6,29.95,SE,124,0.0,1.5,90,0.00,,,0.00,0.00,VWS V14.01,2013-02-13 03:39:00,
2013-02-12 22:44:00,26.1,23.6,29.95,SE,131,0.0,1.5,90,0.00,,,0.00,0.00,VWS V14.01,2013-02-13 03:44:00,
2013-02-12 22:45:00,26.1,23.6,29.94,SE,131,0.0,1.5,90,0.00,,,0.00,0.00,VWS V14.01,2013-02-13 03:45:00,
2013-02-12 22:49:00,26.1,23.6,29.95,SE,131,0.0,1.5,90,0.00,,,0.00,0.00,VWS V14.01,2013-02-13 03:49:00,
2013-02-12 22:54:00,25.9,23.4,29.94,SE,131,0.0,1.5,90,0.00,,,0.00,0.00,VWS V14.01,2013-02-13 03:54:00,
2013-02-12 22:59:00,26.1,23.6,29.95,SE,135,0.0,1.5,90,0.00,,,0.00,0.00,VWS V14.01,2013-02-13 03:59:00,
2013-02-12 23:00:00,26.1,23.6,29.95,SE,135,0.0,1.5,90,0.00,,,0.00,0.00,VWS V14.01,2013-02-13 04:00:00,
2013-02-12 23:04:00,26.2,23.7,29.95,SE,135,0.0,1.5,90,0.00,,,0.00,0.00,VWS V14.01,2013-02-13 04:04:00,
2013-02-12 23:09:00,26.5,24.0,29.95,SE,139,0.0,1.5,90,0.00,,,0.00,0.00,VWS V14.01,2013-02-13 04:09:00,
2013-02-12 23:14:00,26.8,24.0,29.95,SE,126,0.0,1.5,89,0.00,,,0.00,0.00,VWS V14.01,2013-02-13 04:14:00,
2013-02-12 23:15:00,26.8,24.0,29.94,SE,126,0.0,1.5,89,0.00,,,0.00,0.00,VWS V14.01,2013-02-13 04:15:00,
2013-02-12 23:19:00,27.0,24.2,29.95,SE,131,0.0,1.5,89,0.00,,,0.00,0.00,VWS V14.01,2013-02-13 04:19:00,
2013-02-12 23:24:00,27.2,24.1,29.95,ESE,116,0.0,1.5,88,0.00,,,0.00,0.00,VWS V14.01,2013-02-13 04:24:00,
2013-02-12 23:29:00,27.4,24.3,29.95,SE,131,0.0,1.5,88,0.00,,,0.00,0.00,VWS V14.01,2013-02-13 04:29:00,
2013-02-12 23:30:00,27.5,24.4,29.95,SE,131,0.0,1.5,88,0.00,,,0.00,0.00,VWS V14.01,2013-02-13 04:30:00,
2013-02-12 23:34:00,27.6,24.5,29.95,SE,131,1.5,1.5,88,0.00,,,0.00,0.00,VWS V14.01,2013-02-13 04:34:00,
2013-02-12 23:39:00,27.8,24.4,29.94,SE,131,1.5,1.5,87,0.00,,,0.00,0.00,VWS V14.01,2013-02-13 04:39:00,
2013-02-12 23:44:00,27.9,24.5,29.94,SE,135,0.0,1.5,87,0.00,,,0.00,0.00,VWS V14.01,2013-02-13 04:44:00,
2013-02-12 23:45:00,28.0,24.6,29.94,SE,127,1.5,1.5,87,0.00,,,0.00,0.00,VWS V14.01,2013-02-13 04:45:00,
2013-02-12 23:49:00,28.1,24.7,29.94,SE,136,0.0,1.5,87,0.00,,,0.00,0.00,VWS V14.01,2013-02-13 04:49:00,
2013-02-12 23:54:00,28.2,24.8,29.94,SE,136,0.0,1.5,87,0.00,,,0.00,0.00,VWS V14.01,2013-02-13 04:54:00,
2013-02-12 23:59:00,28.3,24.7,29.94,SE,133,1.5,1.5,86,0.00,,,0.00,0.00,VWS V14.01,2013-02-13 04:59:00,